Weather History for EINN - September, 2013

Change the Weather History Date:

Tuesday, September 24, 2013

  Actual Average Record
Temperature  
Mean Temperature 61 °F -  
Max Temperature 64 °F 59 °F 66 °F (2002)
Min Temperature 58 °F 47 °F 39 °F (2008)
Degree Days  
Heating Degree Days 4    
Growing Degree Days 11 (Base 50)    
Moisture  
Dew Point 59 °F    
Average Humidity 90    
Maximum Humidity 94    
Minimum Humidity 81    
Precipitation  
Precipitation 0.02 in 0.12 in - ()
Sea Level Pressure  
Sea Level Pressure 29.92 in    
Wind  
Wind Speed 10 mph ()    
Max Wind Speed 18 mph    
Max Gust Speed -    
Visibility 5.8 miles    
Events Rain    
Averages and records for this station are not official NWS values.
T = Trace of Precipitation, MM = Missing Value Source: Averaged Metar Reports

Daily Weather History Graph

Daily Weather History Graph

Search for Another Location

Airport or City:

Trip Planner

Search our weather history database for the weather conditions in past years. The results will help you decide how hot, cold, wet, or windy it might be!

Date:

Astronomy

Sep. 24, 2013 Rise Set
Actual Time 7:25 AM IST 7:29 PM IST
Civil Twilight 6:50 AM IST 8:03 PM IST
Nautical Twilight 6:10 AM IST 8:43 PM IST
Astronomical Twilight 5:28 AM IST 9:25 PM IST
Moon 9:55 PM IST (9/24) 1:07 PM IST (9/24)
Length of Visible Light 13h 12m
Length of Day
12h 04m
Waning Gibbous, 75% of the Moon is Illuminated
Sep 24
Waning Gibbous
Sep 27
Last Quarter
Oct 5
New
Oct 12
First Quarter
Oct 19
Full

Hourly Weather History & Observations

Time (IST) Temp. Dew Point Humidity Pressure Visibility Wind Dir Wind Speed Gust Speed Precip Events Conditions
12:00 AM 60.8 °F 59.0 °F 94% 29.98 in 6.2 mi ESE 13.8 mph - N/A   Scattered Clouds
12:30 AM 60.8 °F 57.2 °F 88% 29.98 in 6.2 mi SE 18.4 mph - N/A   Partly Cloudy
1:00 AM 62 °F 58 °F 81% 29.99 in 11 mi ESE 15.7 mph - -   Mostly Cloudy
1:00 AM 62.6 °F 57.2 °F 82% 29.98 in 6.2 mi ESE 16.1 mph - N/A   Mostly Cloudy
1:30 AM 60.8 °F 57.2 °F 88% 29.98 in 6.2 mi East 8.1 mph - N/A   Mostly Cloudy
2:00 AM 60.8 °F 57.2 °F 88% 29.98 in 6.2 mi ENE 8.1 mph - N/A   Mostly Cloudy
2:30 AM 59.0 °F 57.2 °F 94% 29.95 in 6.2 mi East 10.4 mph - N/A   Mostly Cloudy
3:00 AM 59.0 °F 57.2 °F 94% 29.95 in 6.2 mi ENE 9.2 mph - N/A   Mostly Cloudy
3:30 AM 60.8 °F 57.2 °F 88% 29.95 in 6.2 mi East 11.5 mph - N/A   Mostly Cloudy
4:00 AM 60.8 °F 57.2 °F 88% 29.92 in 6.2 mi East 13.8 mph - N/A   Mostly Cloudy
4:30 AM 59.0 °F 57.2 °F 94% 29.92 in 3.7 mi East 12.7 mph - N/A   Mostly Cloudy
5:00 AM 59.0 °F 57.2 °F 94% 29.92 in 3.7 mi East 15.0 mph - N/A   Mostly Cloudy
5:30 AM 59.0 °F 57.2 °F 94% 29.92 in 3.7 mi East 13.8 mph - N/A   Mostly Cloudy
6:00 AM 59.0 °F 57.2 °F 94% 29.92 in 3.7 mi East 16.1 mph - N/A   Mostly Cloudy
6:30 AM 59.0 °F 57.2 °F 94% 29.92 in 3.7 mi ESE 10.4 mph - N/A   Mostly Cloudy
7:00 AM 59 °F 56 °F 88% 29.93 in 4 mi East 8.9 mph - -   Mist
7:00 AM 59.0 °F 57.2 °F 94% 29.92 in 3.7 mi East 9.2 mph - N/A   Overcast
7:30 AM 59.0 °F 57.2 °F 94% 29.92 in 6.2 mi East 8.1 mph - N/A   Overcast
8:00 AM 59.0 °F 57.2 °F 94% 29.92 in 4.3 mi East 10.4 mph - N/A   Overcast
8:30 AM 59.0 °F 57.2 °F 94% 29.92 in 5.0 mi East 11.5 mph - N/A   Overcast
9:00 AM 60.8 °F 57.2 °F 88% 29.92 in 5.6 mi East 11.5 mph - N/A   Overcast
9:30 AM 60.8 °F 57.2 °F 88% 29.89 in 5.6 mi ESE 13.8 mph - N/A   Mostly Cloudy
10:00 AM 60.8 °F 57.2 °F 88% 29.89 in 5.6 mi East 11.5 mph - N/A   Overcast
10:30 AM 60.8 °F 57.2 °F 88% 29.95 in 5.0 mi SSE 8.1 mph - N/A   Mostly Cloudy
11:00 AM 60.8 °F 57.2 °F 88% 29.95 in 5.0 mi SSE 11.5 mph - N/A   Mostly Cloudy
11:30 AM 60.8 °F 59.0 °F 94% 29.95 in 5.6 mi SE 11.5 mph - N/A Rain Light Rain
12:00 PM 60.8 °F 59.0 °F 94% 29.92 in 5.6 mi ESE 9.2 mph - N/A Rain Light Rain
12:30 PM 60.8 °F 59.0 °F 94% 29.92 in 5.6 mi ESE 12.7 mph - N/A   Mostly Cloudy
1:00 PM 62 °F 60 °F 89% 29.93 in 6 mi ESE 13.4 mph - - Rain Light Rain
1:00 PM 60.8 °F 59.0 °F 94% 29.92 in 6.2 mi ESE 13.8 mph - N/A   Mostly Cloudy
1:30 PM 62.6 °F 59.0 °F 88% 29.92 in 5.6 mi ESE 9.2 mph - N/A Rain Light Rain
2:00 PM 62.6 °F 59.0 °F 88% 29.92 in 5.6 mi SE 6.9 mph - N/A Rain Light Rain
2:30 PM 64.4 °F 60.8 °F 88% 29.92 in 5.6 mi ESE 8.1 mph - N/A   Mostly Cloudy
3:00 PM 64.4 °F 60.8 °F 88% 29.89 in 6.2 mi East 8.1 mph - N/A   Mostly Cloudy
3:30 PM 64.4 °F 60.8 °F 88% 29.89 in 6.2 mi ENE 6.9 mph - N/A   Mostly Cloudy
4:00 PM 64.4 °F 60.8 °F 88% 29.89 in 6.2 mi East 6.9 mph - N/A   Overcast
4:30 PM 64.4 °F 60.8 °F 88% 29.89 in 6.2 mi East 5.8 mph - N/A   Mostly Cloudy
5:00 PM 64.4 °F 60.8 °F 88% 29.89 in 6.2 mi ESE 5.8 mph - N/A   Mostly Cloudy
5:30 PM 64.4 °F 60.8 °F 88% 29.89 in 6.2 mi ESE 9.2 mph - N/A   Mostly Cloudy
6:00 PM 64.4 °F 60.8 °F 88% 29.89 in 6.2 mi ESE 8.1 mph - N/A   Mostly Cloudy
6:30 PM 64.4 °F 60.8 °F 88% 29.89 in 6.2 mi ESE 8.1 mph - N/A   Mostly Cloudy
7:00 PM 64 °F 60 °F 83% 29.92 in 11 mi ESE 6.7 mph - -   Partly Cloudy
7:00 PM 64.4 °F 60.8 °F 88% 29.92 in 6.2 mi ESE 6.9 mph - N/A   Mostly Cloudy
7:30 PM 64.4 °F 60.8 °F 88% 29.92 in 6.2 mi ESE 8.1 mph - N/A   Mostly Cloudy
8:00 PM 62.6 °F 60.8 °F 94% 29.92 in 6.2 mi ESE 5.8 mph - N/A   Mostly Cloudy
8:30 PM 62.6 °F 60.8 °F 94% 29.92 in 6.2 mi East 6.9 mph - N/A   Mostly Cloudy
9:00 PM 62.6 °F 59.0 °F 88% 29.89 in 6.2 mi East 6.9 mph - N/A   Mostly Cloudy
9:30 PM 62.6 °F 59.0 °F 88% 29.92 in 6.2 mi ESE 6.9 mph - N/A   Mostly Cloudy
10:00 PM 60.8 °F 59.0 °F 94% 29.92 in 6.2 mi ESE 6.9 mph - N/A   Overcast
10:30 PM 60.8 °F 59.0 °F 94% 29.92 in 6.2 mi ESE 8.1 mph - N/A   Mostly Cloudy
11:00 PM 60.8 °F 59.0 °F 94% 29.89 in 6.2 mi SE 6.9 mph - N/A   Mostly Cloudy
11:30 PM 60.8 °F 59.0 °F 94% 29.89 in 3.7 mi SE 4.6 mph - N/A   Mostly Cloudy